• In Deutschland
  • Länderverzeichnis
  • Für 7 Tage
  • Wassertemperatur
  • Satellitenkarten
  • Wetterkarte
  • Widgets
  • user-avatar
    Anmelden

    Stündliche Wetter Ninghai

    Heute, 14 August, Dienstag

    Zeit Temperatur Niederschläge Wind Luftdruck Luftfeuchtigkeit
    00:00 +29°C° 0,2 mm 4 m/S 754 mmHg 92%
    01:00 +29°C° 0,2 mm 4 m/S 754 mmHg 92%
    02:00 +29°C° 0 mm 4 m/S 754 mmHg 93%
    03:00 +29°C° 0,5 mm 4 m/S 754 mmHg 93%
    04:00 +29°C° 0,5 mm 4 m/S 754 mmHg 93%
    05:00 +29°C° 0,5 mm 4 m/S 754 mmHg 93%
    06:00 +29°C° 0,5 mm 5 m/S 754 mmHg 91%
    07:00 +30°C° 0,5 mm 5 m/S 754 mmHg 89%
    08:00 +32°C° 0 mm 4 m/S 754 mmHg 86%
    09:00 +32°C° 0,2 mm 5 m/S 754 mmHg 83%
    10:00 +32°C° 0,2 mm 5 m/S 754 mmHg 81%
    11:00 +33°C° 0,2 mm 6 m/S 754 mmHg 78%
    12:00 +33°C° 0,1 mm 6 m/S 754 mmHg 77%
    13:00 +33°C° 0,1 mm 6 m/S 754 mmHg 77%
    14:00 +34°C° 0 mm 6 m/S 753 mmHg 74%
    15:00 +33°C° 0 mm 7 m/S 753 mmHg 76%
    16:00 +33°C° 0 mm 7 m/S 753 mmHg 79%
    17:00 +32°C° 0 mm 7 m/S 753 mmHg 81%
    18:00 +30°C° 0 mm 7 m/S 753 mmHg 84%
    19:00 +30°C° 0 mm 6 m/S 753 mmHg 86%
    20:00 +29°C° 0 mm 6 m/S 753 mmHg 89%
    21:00 +29°C° 0 mm 6 m/S 753 mmHg 89%
    22:00 +29°C° 0 mm 5 m/S 753 mmHg 90%
    23:00 +29°C° 0 mm 5 m/S 754 mmHg 90%

    Morgen, 15 August, Mittwoch

    Zeit Temperatur Niederschläge Wind Luftdruck Luftfeuchtigkeit
    00:00 +29°C° 0 mm 5 m/S 754 mmHg 90%
    01:00 +29°C° 0 mm 5 m/S 754 mmHg 90%
    02:00 +29°C° 0 mm 5 m/S 753 mmHg 90%
    03:00 +29°C° 0 mm 5 m/S 753 mmHg 90%
    04:00 +29°C° 0 mm 4 m/S 753 mmHg 90%
    05:00 +29°C° 0 mm 4 m/S 753 mmHg 90%
    06:00 +29°C° 0,1 mm 4 m/S 753 mmHg 88%
    07:00 +30°C° 0,1 mm 5 m/S 753 mmHg 85%
    08:00 +32°C° 0,1 mm 5 m/S 753 mmHg 83%
    09:00 +32°C° 0,5 mm 5 m/S 754 mmHg 80%
    10:00 +33°C° 0,5 mm 6 m/S 754 mmHg 78%
    11:00 +33°C° 0,5 mm 6 m/S 754 mmHg 76%
    12:00 +33°C° 1,1 mm 7 m/S 754 mmHg 76%
    13:00 +33°C° 1,1 mm 7 m/S 753 mmHg 76%
    14:00 +33°C° 1,1 mm 7 m/S 753 mmHg 76%
    15:00 +32°C° 0,4 mm 6 m/S 753 mmHg 78%
    16:00 +32°C° 0,4 mm 6 m/S 753 mmHg 80%
    17:00 +30°C° 0,4 mm 5 m/S 753 mmHg 82%
    18:00 +30°C° 0 mm 5 m/S 753 mmHg 84%
    19:00 +29°C° 0 mm 6 m/S 754 mmHg 87%
    20:00 +28°C° 0 mm 6 m/S 754 mmHg 89%
    21:00 +28°C° 0 mm 5 m/S 754 mmHg 88%
    22:00 +28°C° 0 mm 5 m/S 755 mmHg 86%
    23:00 +27°C° 0 mm 4 m/S 755 mmHg 85%

    übermorgen, 16 August, Donnerstag

    Zeit Temperatur Niederschläge Wind Luftdruck Luftfeuchtigkeit
    00:00 +27°C° 0 mm 4 m/S 755 mmHg 86%
    01:00 +27°C° 0 mm 4 m/S 754 mmHg 86%
    02:00 +26°C° 0 mm 4 m/S 754 mmHg 86%
    03:00 +26°C° 0 mm 4 m/S 754 mmHg 89%
    04:00 +26°C° 0 mm 5 m/S 754 mmHg 91%
    05:00 +26°C° 0 mm 5 m/S 754 mmHg 94%
    06:00 +27°C° 0 mm 5 m/S 754 mmHg 90%
    07:00 +28°C° 0 mm 6 m/S 754 mmHg 86%
    08:00 +29°C° 0 mm 7 m/S 755 mmHg 81%
    09:00 +30°C° 0 mm 7 m/S 755 mmHg 78%
    10:00 +32°C° 0 mm 7 m/S 755 mmHg 74%
    11:00 +32°C° 0 mm 7 m/S 755 mmHg 70%
    12:00 +32°C° 0 mm 7 m/S 755 mmHg 70%
    13:00 +32°C° 0 mm 7 m/S 755 mmHg 70%
    14:00 +32°C° 0 mm 8 m/S 755 mmHg 70%
    15:00 +32°C° 0 mm 7 m/S 754 mmHg 73%
    16:00 +30°C° 0 mm 6 m/S 754 mmHg 75%
    17:00 +30°C° 0 mm 6 m/S 754 mmHg 78%
    18:00 +29°C° 0 mm 5 m/S 755 mmHg 81%
    19:00 +28°C° 0 mm 5 m/S 755 mmHg 84%
    20:00 +27°C° 0 mm 5 m/S 756 mmHg 87%
    21:00 +27°C° 0 mm 5 m/S 756 mmHg 86%
    22:00 +27°C° 0 mm 5 m/S 756 mmHg 85%
    23:00 +27°C° 0 mm 5 m/S 756 mmHg 84%

    17 August, Freitag

    Zeit Temperatur Niederschläge Wind Luftdruck Luftfeuchtigkeit
    00:00 +27°C° 0 mm 5 m/S 756 mmHg 83%
    01:00 +26°C° 0 mm 5 m/S 756 mmHg 82%
    02:00 +26°C° 0 mm 5 m/S 756 mmHg 80%
    03:00 +26°C° 0 mm 5 m/S 755 mmHg 83%
    04:00 +26°C° 0 mm 5 m/S 755 mmHg 85%
    05:00 +26°C° 0 mm 5 m/S 755 mmHg 87%
    06:00 +27°C° 0 mm 6 m/S 755 mmHg 83%
    07:00 +28°C° 0 mm 6 m/S 756 mmHg 80%
    08:00 +28°C° 0 mm 7 m/S 756 mmHg 76%
    09:00 +29°C° 0 mm 6 m/S 756 mmHg 72%
    10:00 +30°C° 0 mm 6 m/S 756 mmHg 67%
    11:00 +32°C° 0 mm 6 m/S 756 mmHg 63%
    12:00 +32°C° 0 mm 6 m/S 756 mmHg 62%
    13:00 +32°C° 0 mm 6 m/S 756 mmHg 61%
    14:00 +32°C° 0 mm 5 m/S 755 mmHg 60%
    15:00 +32°C° 0 mm 5 m/S 755 mmHg 63%
    16:00 +30°C° 0 mm 5 m/S 755 mmHg 66%
    17:00 +29°C° 0 mm 5 m/S 755 mmHg 69%
    18:00 +28°C° 0 mm 5 m/S 755 mmHg 74%
    19:00 +26°C° 0 mm 5 m/S 755 mmHg 78%
    20:00 +25°C° 0 mm 5 m/S 755 mmHg 82%
    21:00 +23°C° 0 mm 4 m/S 755 mmHg 82%
    22:00 +23°C° 0 mm 4 m/S 755 mmHg 83%
    23:00 +24°C° 0 mm 3 m/S 756 mmHg 83%

    18 August, Samstag

    Zeit Temperatur Niederschläge Wind Luftdruck Luftfeuchtigkeit
    00:00 +22°C° 0 mm 3 m/S 755 mmHg 83%
    01:00 +22°C° 0 mm 3 m/S 755 mmHg 83%
    02:00 +23°C° 0 mm 2 m/S 755 mmHg 83%
    03:00 +23°C° 0 mm 2 m/S 755 mmHg 84%
    04:00 +23°C° 0 mm 2 m/S 755 mmHg 85%
    05:00 +22°C° 0 mm 3 m/S 754 mmHg 85%
    06:00 +25°C° 0 mm 3 m/S 755 mmHg 82%
    07:00 +27°C° 0 mm 3 m/S 755 mmHg 78%
    08:00 +28°C° 0 mm 3 m/S 755 mmHg 75%
    09:00 +29°C° 0 mm 4 m/S 755 mmHg 70%
    10:00 +30°C° 0 mm 4 m/S 755 mmHg 66%
    11:00 +32°C° 0 mm 4 m/S 755 mmHg 62%
    12:00 +32°C° 0,1 mm 4 m/S 755 mmHg 64%
    13:00 +32°C° 0,1 mm 5 m/S 754 mmHg 66%
    14:00 +32°C° 0,1 mm 5 m/S 754 mmHg 68%
    15:00 +30°C° 0,1 mm 5 m/S 753 mmHg 71%
    16:00 +30°C° 0,1 mm 5 m/S 753 mmHg 74%
    17:00 +29°C° 0,1 mm 5 m/S 753 mmHg 77%
    18:00 +28°C° 0 mm 4 m/S 754 mmHg 79%
    19:00 +27°C° 0 mm 4 m/S 754 mmHg 82%
    20:00 +26°C° 0 mm 3 m/S 754 mmHg 85%
    21:00 +25°C° 0 mm 3 m/S 754 mmHg 86%
    22:00 +25°C° 0 mm 3 m/S 754 mmHg 86%
    23:00 +24°C° 0 mm 3 m/S 754 mmHg 86%

    19 August, Sonntag

    Zeit Temperatur Niederschläge Wind Luftdruck Luftfeuchtigkeit
    00:00 +24°C° 0 mm 3 m/S 754 mmHg 86%
    01:00 +24°C° 0 mm 3 m/S 753 mmHg 86%
    02:00 +23°C° 0 mm 4 m/S 753 mmHg 85%
    03:00 +23°C° 0 mm 4 m/S 753 mmHg 84%
    04:00 +23°C° 0 mm 4 m/S 753 mmHg 83%
    05:00 +23°C° 0 mm 5 m/S 753 mmHg 82%
    06:00 +25°C° 0 mm 5 m/S 753 mmHg 81%
    07:00 +26°C° 0 mm 6 m/S 753 mmHg 80%
    08:00 +27°C° 0 mm 7 m/S 753 mmHg 78%
    09:00 +28°C° 0 mm 7 m/S 753 mmHg 76%
    10:00 +28°C° 0 mm 7 m/S 752 mmHg 74%
    11:00 +29°C° 0 mm 8 m/S 752 mmHg 72%
    12:00 +29°C° 0 mm 8 m/S 752 mmHg 72%
    13:00 +29°C° 0 mm 8 m/S 751 mmHg 72%
    14:00 +29°C° 0 mm 8 m/S 751 mmHg 72%
    15:00 +28°C° 0 mm 7 m/S 751 mmHg 74%
    16:00 +28°C° 0 mm 7 m/S 750 mmHg 76%
    17:00 +27°C° 0 mm 7 m/S 750 mmHg 77%
    18:00 +27°C° 0 mm 7 m/S 750 mmHg 78%
    19:00 +27°C° 0 mm 7 m/S 751 mmHg 78%
    20:00 +27°C° 0 mm 6 m/S 751 mmHg 78%
    21:00 +26°C° 0 mm 6 m/S 750 mmHg 80%
    22:00 +26°C° 0 mm 6 m/S 750 mmHg 82%
    23:00 +26°C° 0 mm 6 m/S 750 mmHg 84%
    Mehr zeigen